SR9NCI Weather Reports


Display with metric or nautical units.
time (UTC)temp
F
wind
direction
speed
MPH
gust
MPH
rain 1hr
in
rain 24hr
in
rain mn
in
humidity
%
barometer
mb
20260510234153 61 137 5.0 9.0 0.00 0.00 0.00
20260510233750 62 133 4.0 6.0 0.00 0.00 0.00
20260510233349 61 135 3.0 6.0 0.00 0.00 0.00
20260510232947 61 121 3.0 5.0 0.00 0.00 0.00
20260510232546 61 132 4.0 5.0 0.00 0.00 0.00
20260510232144 61 127 4.0 8.0 0.00 0.00 0.00
20260510231742 62 122 4.0 7.0 0.00 0.00 0.00
20260510231334 61 135 4.0 6.0 0.00 0.00 0.00
20260510230933 61 114 5.0 7.0 0.00 0.00 0.00
20260510230532 60 125 4.0 7.0 0.00 0.00 0.00
20260510230130 61 121 4.0 6.0 0.00 0.00 0.00
20260510225728 61 117 4.0 8.0 0.00 0.00 0.00
20260510225327 61 111 4.0 6.0 0.00 0.00 0.00
20260510224925 61 135 3.0 5.0 0.00 0.00 0.00
20260510224523 61 132 4.0 6.0 0.00 0.00 0.00
20260510224122 62 126 4.0 5.0 0.00 0.00 0.00
20260510223720 61 135 3.0 6.0 0.00 0.00 0.00
20260510223312 61 127 3.0 5.0 0.00 0.00 0.00
20260510222909 61 112 4.0 6.0 0.00 0.00 0.00
20260510222508 61 131 4.0 7.0 0.00 0.00 0.00
20260510222107 62 121 4.0 5.0 0.00 0.00 0.00
20260510221705 61 120 4.0 6.0 0.00 0.00 0.00
20260510221303 62 118 5.0 7.0 0.00 0.00 0.00
20260510220901 61 114 5.0 8.0 0.00 0.00 0.00
20260510220500 61 126 4.0 8.0 0.00 0.00 0.00
20260510220059 62 129 4.0 8.0 0.00 0.00 0.00
20260510215657 61 137 3.0 7.0 0.00 0.00 0.00
20260510215248 61 135 2.0 4.0 0.00 0.00 0.00
20260510214846 61 135 2.0 4.0 0.00 0.00 0.00
20260510214446 61 135 2.0 4.0 0.00 0.00 0.00
20260510214045 61 135 2.0 4.0 0.00 0.00 0.00
20260510213642 61 127 3.0 5.0 0.00 0.00 0.00
20260510213241 61 111 3.0 4.0 0.00 0.00 0.00
20260510212839 61 111 3.0 5.0 0.00 0.00 0.00
20260510212438 60 116 4.0 5.0 0.00 0.00 0.00
20260510212036 60 111 3.0 5.0 0.00 0.00 0.00
20260510211634 61 111 3.0 4.0 0.00 0.00 0.00
20260510211226 61 131 3.0 6.0 0.00 0.00 0.00
20260510210824 60 111 3.0 4.0 0.00 0.00 0.00
20260510210422 61 111 3.0 4.0 0.00 0.00 0.00
20260510210021 61 111 3.0 5.0 0.00 0.00 0.00
20260510205619 61 111 3.0 4.0 0.00 0.00 0.00
20260510205218 61 127 3.0 5.0 0.00 0.00 0.00
20260510204816 62 135 2.0 3.0 0.00 0.00 0.00
20260510204414 62 135 2.0 3.0 0.00 0.00 0.00
20260510204013 62 135 2.0 5.0 0.00 0.00 0.00
20260510203611 63 135 3.0 5.0 0.00 0.00 0.00
20260510203203 61 152 2.0 5.0 0.00 0.00 0.00
20260510202800 62 157 3.0 4.0 0.00 0.00 0.00
20260510202359 61 157 2.0 2.0 0.00 0.00 0.00
20260510201958 62 157 4.0 5.0 0.00 0.00 0.00
20260510201557 62 157 3.0 5.0 0.00 0.00 0.00
20260510201154 61 157 3.0 4.0 0.00 0.00 0.00
20260510200753 61 157 1.0 3.0 0.00 0.00 0.00
20260510200352 63 157 3.0 5.0 0.00 0.00 0.00
20260510195951 63 153 4.0 8.0 0.00 0.00 0.00
20260510195548 61 115 3.0 5.0 0.00 0.00 0.00
20260510195140 61 111 1.0 3.0 0.00 0.00 0.00
20260510194738 61 111 2.0 3.0 0.00 0.00 0.00
20260510194337 63 111 3.0 3.0 0.00 0.00 0.00
20260510193936 61 115 3.0 4.0 0.00 0.00 0.00
20260510193533 60 135 2.0 3.0 0.00 0.00 0.00
20260510193132 61 135 2.0 5.0 0.00 0.00 0.00
20260510192730 62 106 3.0 4.0 0.00 0.00 0.00
20260510192329 61 90 5.0 6.0 0.00 0.00 0.00
20260510191927 62 111 1.0 2.0 0.00 0.00 0.00
20260510191525 62 111 2.0 4.0 0.00 0.00 0.00
20260510191117 62 144 1.0 2.0 0.00 0.00 0.00
20260510190313 62 82 4.0 5.0 0.00 0.00 0.00
20260510185912 63 71 5.0 8.0 0.00 0.00 0.00
20260510185510 63 69 6.0 10.0 0.00 0.00 0.00
20260510185109 63 67 6.0 8.0 0.00 0.00 0.00
20260510184706 63 63 5.0 9.0 0.00 0.00 0.00
20260510184305 63 67 6.0 8.0 0.00 0.00 0.00
20260510183904 63 61 5.0 7.0 0.00 0.00 0.00
20260510183502 63 58 6.0 9.0 0.00 0.00 0.00
20260510183054 63 72 5.0 9.0 0.00 0.00 0.00
20260510182651 63 67 5.0 8.0 0.00 0.00 0.00
20260510182250 64 66 5.0 6.0 0.00 0.00 0.00
20260510181849 64 64 4.0 6.0 0.00 0.00 0.00
20260510181447 64 68 5.0 7.0 0.00 0.00 0.00
20260510181045 64 63 6.0 8.0 0.00 0.00 0.00
20260510180643 64 75 6.0 9.0 0.00 0.00 0.00
20260510180242 64 68 5.0 8.0 0.00 0.00 0.00
20260510175841 65 65 6.0 9.0 0.00 0.00 0.00
20260510175438 65 63 4.0 8.0 0.00 0.00 0.00
20260510175030 65 69 6.0 9.0 0.00 0.00 0.00
20260510174629 65 67 4.0 6.0 0.00 0.00 0.00
20260510174228 65 65 5.0 7.0 0.00 0.00 0.00
20260510173825 65 63 5.0 8.0 0.00 0.00 0.00
20260510173423 66 61 5.0 10.0 0.00 0.00 0.00
20260510173022 66 71 6.0 8.0 0.00 0.00 0.00
20260510172621 66 72 6.0 9.0 0.00 0.00 0.00
20260510172220 66 63 5.0 9.0 0.00 0.00 0.00
20260510171818 67 57 6.0 9.0 0.00 0.00 0.00
20260510171416 67 57 6.0 10.0 0.00 0.00 0.00
20260510171008 67 66 6.0 9.0 0.00 0.00 0.00
20260510170606 68 69 6.0 9.0 0.00 0.00 0.00
20260510170204 68 66 7.0 9.0 0.00 0.00 0.00
20260510165803 68 60 5.0 8.0 0.00 0.00 0.00
20260510165401 68 61 6.0 9.0 0.00 0.00 0.00
20260510165000 68 75 5.0 8.0 0.00 0.00 0.00
20260510164557 69 50 3.0 5.0 0.00 0.00 0.00
20260510164156 69 63 6.0 8.0 0.00 0.00 0.00
20260510163755 69 45 7.0 9.0 0.00 0.00 0.00
20260510163353 70 41 7.0 10.0 0.00 0.00 0.00
20260510162944 71 40 5.0 7.0 0.00 0.00 0.00
20260510162542 72 74 4.0 6.0 0.00 0.00 0.00
20260510162141 72 46 5.0 9.0 0.00 0.00 0.00
20260510161740 71 66 6.0 9.0 0.00 0.00 0.00
20260510161338 74 83 3.0 6.0 0.00 0.00 0.00
20260510160936 74 24 4.0 8.0 0.00 0.00 0.00
20260510160534 73 42 4.0 6.0 0.00 0.00 0.00
20260510160133 73 64 5.0 8.0 0.00 0.00 0.00
20260510155732 74 109 3.0 7.0 0.00 0.00 0.00
20260510155329 74 39 3.0 6.0 0.00 0.00 0.00
20260510154921 73 22 5.0 8.0 0.00 0.00 0.00
20260510154518 73 58 5.0 9.0 0.00 0.00 0.00
20260510154117 73 42 4.0 7.0 0.00 0.00 0.00
20260510153715 72 84 3.0 6.0 0.00 0.00 0.00
20260510153313 72 21 6.0 9.0 0.00 0.00 0.00
20260510152912 71 52 5.0 7.0 0.00 0.00 0.00
20260510152510 71 63 8.0 12.0 0.00 0.00 0.00
20260510152108 72 39 6.0 9.0 0.00 0.00 0.00
20260510151707 72 41 4.0 8.0 0.00 0.00 0.00
20260510151305 72 55 6.0 8.0 0.00 0.00 0.00
20260510150857 72 26 3.0 8.0 0.00 0.00 0.00
20260510150455 72 30 5.0 7.0 0.00 0.00 0.00
20260510150053 71 45 3.0 7.0 0.00 0.00 0.00
20260510145652 72 45 4.0 9.0 0.00 0.00 0.00
20260510145250 72 64 4.0 8.0 0.00 0.00 0.00
20260510144849 72 20 5.0 8.0 0.00 0.00 0.00
20260510144446 72 16 4.0 7.0 0.00 0.00 0.00
20260510144045 72 25 4.0 10.0 0.00 0.00 0.00
20260510143644 72 12 6.0 11.0 0.00 0.00 0.00
20260510143243 72 49 3.0 6.0 0.00 0.00 0.00
20260510142833 71 53 7.0 9.0 0.00 0.00 0.00
20260510142432 72 35 6.0 10.0 0.00 0.00 0.00
20260510142031 72 340 2.0 6.0 0.00 0.00 0.00
20260510141630 71 16 6.0 9.0 0.00 0.00 0.00
20260510141227 72 90 4.0 6.0 0.00 0.00 0.00
20260510140826 72 46 5.0 9.0 0.00 0.00 0.00
20260510140424 73 296 4.0 9.0 0.00 0.00 0.00
20260510140023 72 345 2.0 4.0 0.00 0.00 0.00
20260510135622 72 18 4.0 9.0 0.00 0.00 0.00
20260510135219 72 357 6.0 10.0 0.00 0.00 0.00
20260510134811 72 24 4.0 8.0 0.00 0.00 0.00
20260510134409 72 44 6.0 10.0 0.00 0.00 0.00
20260510134008 72 69 3.0 8.0 0.00 0.00 0.00
20260510133606 71 319 4.0 7.0 0.00 0.00 0.00
20260510133204 72 358 4.0 8.0 0.00 0.00 0.00
20260510132803 72 309 4.0 8.0 0.00 0.00 0.00
20260510132401 71 302 5.0 8.0 0.00 0.00 0.00
20260510131959 72 31 2.0 7.0 0.00 0.00 0.00
20260510131558 72 356 2.0 6.0 0.00 0.00 0.00
20260510131156 72 3 3.0 5.0 0.00 0.00 0.00
20260510130748 71 135 2.0 5.0 0.00 0.00 0.00
20260510130345 70 78 7.0 10.0 0.00 0.00 0.00
20260510125944 71 90 8.0 11.0 0.00 0.00 0.00
20260510125543 72 47 4.0 6.0 0.00 0.00 0.00
20260510125142 72 15 4.0 10.0 0.00 0.00 0.00
20260510124741 72 4 2.0 6.0 0.00 0.00 0.00
20260510124338 71 2 2.0 4.0 0.00 0.00 0.00
20260510123937 71 6 6.0 10.0 0.00 0.00 0.00
20260510123536 71 13 5.0 8.0 0.00 0.00 0.00
20260510123134 72 341 2.0 4.0 0.00 0.00 0.00
20260510122725 72 6 4.0 9.0 0.00 0.00 0.00
20260510122323 72 9 5.0 9.0 0.00 0.00 0.00
20260510121922 72 305 4.0 9.0 0.00 0.00 0.00
20260510121521 71 345 4.0 7.0 0.00 0.00 0.00
20260510121118 71 11 2.0 4.0 0.00 0.00 0.00
20260510120717 71 92 3.0 6.0 0.00 0.00 0.00
20260510120315 71 41 5.0 9.0 0.00 0.00 0.00
20260510115914 71 14 4.0 9.0 0.00 0.00 0.00
20260510115512 72 120 2.0 5.0 0.00 0.00 0.00
20260510115110 72 116 4.0 9.0 0.00 0.00 0.00
20260510114702 71 32 6.0 10.0 0.00 0.00 0.00
20260510114300 69 326 2.0 4.0 0.00 0.00 0.00
20260510113859 71 17 6.0 11.0 0.00 0.00 0.00
20260510113457 69 22 6.0 9.0 0.00 0.00 0.00
20260510113055 71 55 5.0 8.0 0.00 0.00 0.00
20260510112654 70 336 3.0 6.0 0.00 0.00 0.00
20260510112253 69 333 3.0 6.0 0.00 0.00 0.00
20260510111850 69 7 3.0 8.0 0.00 0.00 0.00
20260510111450 70 27 6.0 9.0 0.00 0.00 0.00
20260510111048 69 52 6.0 12.0 0.00 0.00 0.00
20260510110640 70 83 5.0 9.0 0.00 0.00 0.00
20260510110237 69 33 8.0 14.0 0.00 0.00 0.00
20260510105836 69 33 5.0 7.0 0.00 0.00 0.00
20260510105435 70 52 4.0 7.0 0.00 0.00 0.00
20260510105033 69 13 5.0 10.0 0.00 0.00 0.00
20260510104631 70 2 5.0 10.0 0.00 0.00 0.00
20260510104229 69 39 4.0 9.0 0.00 0.00 0.00
20260510103828 69 343 3.0 8.0 0.00 0.00 0.00
20260510103427 68 355 4.0 6.0 0.00 0.00 0.00
20260510103025 68 19 2.0 6.0 0.00 0.00 0.00
20260510102617 68 13 5.0 9.0 0.00 0.00 0.00
20260510102214 68 346 5.0 7.0 0.00 0.00 0.00
20260510101813 68 358 2.0 6.0 0.00 0.00 0.00
20260510101412 68 9 5.0 8.0 0.00 0.00 0.00
20260510101009 69 27 8.0 10.0 0.00 0.00 0.00
20260510100608 68 59 4.0 9.0 0.00 0.00 0.00
20260510100206 69 88 5.0 9.0 0.00 0.00 0.00
20260510095806 67 50 3.0 7.0 0.00 0.00 0.00
20260510095403 67 334 4.0 7.0 0.00 0.00 0.00
20260510095001 68 354 3.0 5.0 0.00 0.00 0.00
20260510094553 67 26 3.0 6.0 0.00 0.00 0.00
20260510094151 67 54 5.0 7.0 0.00 0.00 0.00
20260510093749 67 16 5.0 8.0 0.00 0.00 0.00
20260510093348 67 60 4.0 9.0 0.00 0.00 0.00
20260510092946 66 355 3.0 5.0 0.00 0.00 0.00
20260510092545 67 85 3.0 5.0 0.00 0.00 0.00
20260510092144 67 98 6.0 8.0 0.00 0.00 0.00
20260510091741 68 90 2.0 4.0 0.00 0.00 0.00
20260510091340 67 105 2.0 5.0 0.00 0.00 0.00
20260510090939 66 24 3.0 7.0 0.00 0.00 0.00
20260510090531 66 55 2.0 5.0 0.00 0.00 0.00
20260510090128 66 94 4.0 6.0 0.00 0.00 0.00
20260510085727 65 60 6.0 9.0 0.00 0.00 0.00
20260510085326 64 20 3.0 7.0 0.00 0.00 0.00
20260510084924 64 15 5.0 9.0 0.00 0.00 0.00
20260510084522 65 131 1.0 4.0 0.00 0.00 0.00
20260510084120 65 202 2.0 5.0 0.00 0.00 0.00
20260510083719 65 102 4.0 7.0 0.00 0.00 0.00
20260510083318 63 82 6.0 7.0 0.00 0.00 0.00
20260510082915 62 349 3.0 6.0 0.00 0.00 0.00
20260510082507 63 9 2.0 5.0 0.00 0.00 0.00
20260510082105 63 27 7.0 9.0 0.00 0.00 0.00
20260510081704 63 0 3.0 5.0 0.00 0.00 0.00
20260510081303 62 21 3.0 5.0 0.00 0.00 0.00
20260510080900 62 355 3.0 6.0 0.00 0.00 0.00
20260510080459 62 348 3.0 7.0 0.00 0.00 0.00
20260510080057 61 16 2.0 6.0 0.00 0.00 0.00
20260510075656 62 29 4.0 7.0 0.00 0.00 0.00
20260510075254 62 40 2.0 4.0 0.00 0.00 0.00
20260510074852 61 357 4.0 8.0 0.00 0.00 0.00
20260510074444 61 35 3.0 5.0 0.00 0.00 0.00
20260510074042 61 61 4.0 6.0 0.00 0.00 0.00
20260510073640 62 59 3.0 5.0 0.00 0.00 0.00
20260510073239 60 12 3.0 6.0 0.00 0.00 0.00
20260510072837 61 1 2.0 8.0 0.00 0.00 0.00
20260510072436 60 0 1.0 2.0 0.00 0.00 0.00
20260510072033 61 19 2.0 4.0 0.00 0.00 0.00
20260510071632 63 50 4.0 8.0 0.00 0.00 0.00
20260510071231 68 7 2.0 4.0 0.00 0.00 0.00
20260510070829 68 48 2.0 4.0 0.00 0.00 0.00
20260510070421 62 16 3.0 6.0 0.00 0.00 0.00
20260510070018 60 54 5.0 7.0 0.00 0.00 0.00
20260510065617 59 41 5.0 8.0 0.00 0.00 0.00
20260510065216 59 96 1.0 4.0 0.00 0.00 0.00
20260510064814 60 129 2.0 5.0 0.00 0.00 0.00
20260510064412 59 135 1.0 3.0 0.00 0.00 0.00
20260510064010 61 135 0.0 0.0 0.00 0.00 0.00
20260510063608 63 135 1.0 2.0 0.00 0.00 0.00
20260510063207 59 135 0.0 1.0 0.00 0.00 0.00
20260510062803 57 135 2.0 3.0 0.00 0.00 0.00
20260510062355 58 135 1.0 3.0 0.00 0.00 0.00
20260510061953 57 135 2.0 5.0 0.00 0.00 0.00
20260510061552 59 135 0.0 0.0 0.00 0.00 0.00
20260510061150 58 135 0.0 1.0 0.00 0.00 0.00
20260510060748 59 135 0.0 2.0 0.00 0.00 0.00
20260510060347 56 135 0.0 1.0 0.00 0.00 0.00
20260510055945 55 135 0.0 1.0 0.00 0.00 0.00
20260510055544 58 135 0.0 1.0 0.00 0.00 0.00
20260510055142 56 135 2.0 4.0 0.00 0.00 0.00
20260510054740 53 135 1.0 3.0 0.00 0.00 0.00
20260510054332 52 135 0.0 3.0 0.00 0.00 0.00
20260510053930 52 135 1.0 2.0 0.00 0.00 0.00
20260510053528 53 135 1.0 3.0 0.00 0.00 0.00
20260510053127 52 135 0.0 1.0 0.00 0.00 0.00
20260510052324 51 135 0.0 2.0 0.00 0.00 0.00
20260510051921 50 135 1.0 2.0 0.00 0.00 0.00
20260510051520 51 135 0.0 2.0 0.00 0.00 0.00
20260510051119 52 135 0.0 2.0 0.00 0.00 0.00
20260510050717 52 135 0.0 0.0 0.00 0.00 0.00
20260510050308 56 135 0.0 1.0 0.00 0.00 0.00
20260510045505 50 135 0.0 0.0 0.00 0.00 0.00
20260510045104 49 135 0.0 0.0 0.00 0.00 0.00
20260510044703 48 135 0.0 0.0 0.00 0.00 0.00
20260510044300 46 135 0.0 0.0 0.00 0.00 0.00
20260510043859 46 135 0.0 0.0 0.00 0.00 0.00
20260510043458 46 135 0.0 0.0 0.00 0.00 0.00
20260510043057 47 135 0.0 2.0 0.00 0.00 0.00
20260510042654 47 135 0.0 0.0 0.00 0.00 0.00
20260510042246 48 135 1.0 2.0 0.00 0.00 0.00
20260510041844 47 135 0.0 0.0 0.00 0.00 0.00
20260510041443 45 135 0.0 0.0 0.00 0.00 0.00
20260510041041 44 135 0.0 0.0 0.00 0.00 0.00
20260510040639 43 135 0.0 0.0 0.00 0.00 0.00
20260510040238 43 135 0.0 0.0 0.00 0.00 0.00
20260510035836 42 135 0.0 0.0 0.00 0.00 0.00
20260510035434 42 135 0.0 0.0 0.00 0.00 0.00
20260510035033 42 135 0.0 0.0 0.00 0.00 0.00
20260510034631 42 135 0.0 0.0 0.00 0.00 0.00
20260510034223 41 135 0.0 0.0 0.00 0.00 0.00
20260510033821 41 135 0.0 0.0 0.00 0.00 0.00
20260510033419 42 135 0.0 0.0 0.00 0.00 0.00
20260510033018 40 135 0.0 0.0 0.00 0.00 0.00
20260510032616 39 135 0.0 2.0 0.00 0.00 0.00
20260510032215 39 135 0.0 0.0 0.00 0.00 0.00
20260510031812 40 135 0.0 0.0 0.00 0.00 0.00
20260510031412 40 135 0.0 1.0 0.00 0.00 0.00
20260510031011 41 135 0.0 0.0 0.00 0.00 0.00
20260510030609 41 135 1.0 2.0 0.00 0.00 0.00
20260510030200 41 135 0.0 0.0 0.00 0.00 0.00
20260510025758 41 135 0.0 0.0 0.00 0.00 0.00
20260510025357 41 135 0.0 0.0 0.00 0.00 0.00
20260510024956 41 135 0.0 0.0 0.00 0.00 0.00
20260510024553 41 135 1.0 2.0 0.00 0.00 0.00
20260510024152 40 138 3.0 4.0 0.00 0.00 0.00
20260510023750 40 157 1.0 2.0 0.00 0.00 0.00
20260510023349 40 157 0.0 1.0 0.00 0.00 0.00
20260510022948 40 157 1.0 1.0 0.00 0.00 0.00
20260510022545 41 157 1.0 2.0 0.00 0.00 0.00
20260510022137 40 157 1.0 2.0 0.00 0.00 0.00
20260510021735 40 157 0.0 0.0 0.00 0.00 0.00
20260510021334 40 157 0.0 1.0 0.00 0.00 0.00
20260510020932 41 157 0.0 0.0 0.00 0.00 0.00
20260510020530 42 157 0.0 0.0 0.00 0.00 0.00
20260510020129 42 157 0.0 0.0 0.00 0.00 0.00
20260510015727 42 157 0.0 0.0 0.00 0.00 0.00
20260510015325 41 157 0.0 0.0 0.00 0.00 0.00
20260510014924 41 157 0.0 0.0 0.00 0.00 0.00
20260510014523 42 157 0.0 0.0 0.00 0.00 0.00
20260510014115 42 157 1.0 2.0 0.00 0.00 0.00
20260510013712 42 157 0.0 0.0 0.00 0.00 0.00
20260510013311 42 157 0.0 0.0 0.00 0.00 0.00
20260510012910 43 157 0.0 0.0 0.00 0.00 0.00
20260510012508 43 157 0.0 0.0 0.00 0.00 0.00
20260510012107 43 157 0.0 0.0 0.00 0.00 0.00
20260510011704 43 157 0.0 0.0 0.00 0.00 0.00
20260510011303 43 157 0.0 0.0 0.00 0.00 0.00
20260510010902 43 157 0.0 0.0 0.00 0.00 0.00
20260510010500 43 157 0.0 0.0 0.00 0.00 0.00
20260510010051 42 157 0.0 0.0 0.00 0.00 0.00
20260510005649 42 157 0.0 0.0 0.00 0.00 0.00
20260510005248 42 157 0.0 0.0 0.00 0.00 0.00
20260510004847 42 157 0.0 0.0 0.00 0.00 0.00
20260510004444 42 157 0.0 0.0 0.00 0.00 0.00
20260510004043 42 157 0.0 0.0 0.00 0.00 0.00
20260510003641 42 157 0.0 0.0 0.00 0.00 0.00
20260510003240 42 157 0.0 1.0 0.00 0.00 0.00
20260510002838 43 157 0.0 0.0 0.00 0.00 0.00
20260510002436 43 157 0.0 0.0 0.00 0.00 0.00
20260510002028 43 157 0.0 0.0 0.00 0.00 0.00
20260510001627 43 157 0.0 0.0 0.00 0.00 0.00
20260510001226 43 157 0.0 0.0 0.00 0.00 0.00
20260510000823 43 157 0.0 0.0 0.00 0.00 0.00
20260510000422 43 157 1.0 2.0 0.00 0.00 0.00
20260510000021 44 157 1.0 2.0 0.00 0.00 0.00
20260509235619 44 157 0.0 2.0 0.00 0.00 0.00
20260509235217 43 157 0.0 0.0 0.00 0.00 0.00
20260509234816 44 157 0.0 0.0 0.00 0.00 0.00
20260509234414 43 157 0.0 1.0 0.00 0.00 0.00